GFSMW_prec_cthk_150.txt.gz
RH
36 37 37 33 27 23 20 19 19 19 29 33 35 37 36 44 62 73 73 72 67 59 60 58 56 61 63 65 60 60 65 65 61 64 70 75 72 70 70 63 62 58 66
34 32 30 29 28 25 21 19 18 18 17 23 30 37 40 39 46 58 63 73 78 68 71 65 64 72 76 68 62 68 70 71 71 64 69 73 75 72 73 69 66 60 61
34 30 31 30 30 28 26 23 22 20 18 19 19 26 32 35 40 45 61 67 69 66 71 78 74 81 83 77 73 64 73 73 77 74 72 74 74 73 75 75 71 65 64
37 34 30 28 31 30 30 28 26 26 24 23 23 24 31 32 32 40 45 47 60 59 55 63 69 66 73 75 69 62 72 73 76 84 75 69 70 74 81 84 78 74 66
39 33 31 30 31 30 31 32 29 28 28 29 31 28 29 31 32 33 39 45 50 48 49 52 59 57 65 66 67 69 66 75 76 82 98 87 76 79 72 92 87 87 75
33 34 34 36 33 33 31 31 32 32 30 31 33 37 35 34 30 31 34 38 43 55 50 53 49 50 58 64 69 77 75 78 82 85 94 83 80 72 82 79 81 83 85
34 33 32 29 31 32 32 33 33 34 33 33 34 40 40 40 38 35 32 34 37 45 48 40 46 51 47 58 71 80 82 79 91 90 90 79 78 76 74 75 82 87 89
36 36 35 34 32 32 32 32 36 39 41 39 39 41 47 49 44 42 38 34 39 43 48 61 60 51 54 64 70 80 85 91 93 92 87 90 78 67 70 77 82 85 96
43 41 36 37 37 34 32 35 38 45 47 48 49 51 52 57 56 53 48 39 35 40 45 49 54 59 65 63 64 71 78 85 90 93 87 91 79 65 77 74 76 87 93
45 39 38 37 41 39 36 37 45 54 59 60 61 61 63 69 68 70 55 52 41 42 48 48 61 71 78 86 87 82 81 74 78 78 79 86 87 67 75 79 76 83 91
40 39 41 41 43 42 42 44 57 64 72 73 73 74 79 78 83 78 81 59 64 55 64 71 76 80 87 86 87 83 83 75 65 67 79 87 79 82 81 82 71 79 87
45 47 49 47 45 48 49 53 61 72 82 80 80 82 91 93 95 91 83 82 76 80 74 80 88 90 89 95 93 86 82 78 84 83 82 71 83 87 84 84 86 86 82
51 51 51 51 49 51 57 60 69 76 87 87 87 89 95 97 98 98 89 89 89 90 99 85 94 90 91 96 84 82 77 73 75 69 66 60 70 71 81 86 87 83 85
51 53 53 54 53 54 60 67 72 79 86 93 93 92 95 96 97 97 98 97 96 97 91 94 89 91 93 83 78 70 66 65 64 60 51 55 61 71 71 70 79 83 86
58 59 61 62 61 60 65 68 74 78 85 93 95 94 95 97 97 97 98 96 97 97 97 82 84 89 77 76 71 67 50 37 41 47 50 49 56 59 56 66 70 70 87
62 64 65 64 64 64 68 74 70 76 80 89 94 97 97 95 96 97 97 97 98 97 86 84 82 73 66 64 57 44 37 36 36 37 37 40 43 45 48 51 58 65 70
65 72 70 67 64 64 65 71 67 72 76 82 86 90 96 97 92 88 83 84 88 93 90 88 78 69 69 61 52 46 44 39 39 37 33 33 33 35 36 40 48 52 58
67 72 70 68 64 61 61 64 60 61 65 67 77 82 85 90 92 93 90 88 86 79 83 81 76 70 64 51 49 46 44 44 39 34 30 31 31 32 32 32 36 42 49
68 68 69 66 62 58 55 57 53 53 50 54 57 70 73 77 83 83 81 82 83 82 84 83 80 72 60 55 50 49 48 44 37 31 31 33 31 32 31 30 29 37 45
60 59 57 54 53 51 50 47 47 48 44 44 46 48 56 64 67 69 67 68 69 73 72 71 76 82 75 66 59 56 54 51 43 35 32 32 31 31 30 30 32 29 35
58 53 42 42 43 44 46 45 44 44 40 40 42 42 44 45 51 54 57 58 56 56 58 56 58 70 73 76 73 69 61 49 48 43 35 34 35 31 31 33 33 33 28
55 51 42 39 40 40 41 42 43 43 40 40 39 39 40 40 40 40 42 43 45 47 44 44 47 47 53 57 60 55 54 51 50 49 43 37 33 32 31 31 32 33 29
51 49 42 40 40 41 41 40 41 38 39 41 42 41 40 39 38 37 37 37 38 38 38 39 39 36 41 41 44 45 44 42 42 41 45 40 34 30 30 31 32 31 28
52 47 42 41 43 43 41 40 38 36 39 41 42 41 41 40 40 40 38 37 36 35 35 35 34 34 34 33 32 28 28 30 32 34 34 38 37 34 32 32 31 30 30
55 48 45 44 44 44 41 38 36 37 38 40 43 43 43 43 42 41 41 42 42 40 37 36 35 33 31 30 31 32 29 27 30 29 31 38 43 41 37 35 33 34 32
55 52 48 48 46 44 42 40 37 37 39 39 41 44 46 46 45 44 44 46 47 46 45 42 40 38 36 35 34 33 32 32 31 32 33 35 37 39 39 39 39 39 36

GFSMW_prec_cthk_156.txt.gz
RH
29 27 25 24 22 20 18 17 16 16 15 14 13 13 13 13 18 26 35 43 57 65 69 70 71 81 77 78 74 68 70 66 61 64 69 71 70 66 63 63 59 64 63
29 28 26 24 22 21 19 18 18 18 17 16 15 15 15 15 15 15 20 32 37 51 60 60 61 76 77 81 81 73 71 71 68 73 81 84 85 81 75 70 75 69 65
30 29 27 24 23 21 22 22 20 18 17 16 15 14 14 15 15 14 14 14 27 33 45 46 54 68 76 82 76 86 85 73 67 73 82 91 88 81 83 83 76 72 71
31 29 28 26 25 25 24 22 20 18 17 15 13 14 16 17 16 16 15 16 16 26 30 37 49 59 72 79 76 87 91 90 85 83 81 88 94 91 91 88 85 75 72
33 31 30 31 31 30 27 24 23 21 19 16 15 15 16 17 18 19 18 16 18 20 25 35 36 45 55 60 73 80 88 99 97 98 88 87 90 92 89 90 91 88 77
37 38 37 37 34 33 31 29 27 24 19 16 17 18 20 21 21 21 21 23 21 21 24 26 33 34 40 51 58 68 88 91 95 95 94 93 84 93 98 97 94 92 86
46 44 43 43 45 41 35 32 28 24 18 17 18 19 22 24 26 28 28 27 27 27 29 30 28 27 35 39 47 56 71 80 85 81 87 91 93 96 97 94 95 98 95
52 51 52 49 45 42 38 34 27 21 20 20 21 24 26 29 31 34 36 36 37 37 38 37 37 33 29 36 40 47 55 62 81 81 79 84 86 89 90 92 93 85 83
54 52 49 47 46 42 36 28 24 23 25 26 27 29 33 37 41 45 49 48 49 48 48 49 47 45 38 29 40 49 49 60 64 92 84 75 77 81 85 89 95 88 79
57 55 54 49 42 35 28 28 30 33 34 36 38 39 42 55 61 65 68 68 64 62 60 59 60 54 47 54 32 35 54 56 60 64 78 79 77 79 81 83 81 79 74
53 52 46 36 29 28 30 33 36 40 44 45 43 44 54 72 73 77 80 77 79 77 77 73 69 69 60 60 54 42 45 53 60 59 63 74 76 84 87 87 79 75 75
51 48 34 29 29 31 34 35 39 43 45 46 47 55 71 72 82 90 90 87 88 91 88 87 86 82 70 68 62 56 48 55 50 61 58 68 76 86 85 83 78 76 74
48 31 29 32 34 36 39 42 44 44 47 46 52 62 70 73 87 92 93 96 96 97 96 95 93 92 84 76 73 64 61 61 60 54 57 74 85 84 81 83 82 81 84
40 31 31 36 39 43 46 46 47 48 48 49 56 61 62 72 82 94 95 97 97 97 97 97 95 93 88 95 91 76 66 55 66 65 69 78 82 80 78 79 84 81 84
36 33 37 43 46 44 43 47 48 48 48 50 55 55 56 61 74 89 95 97 97 97 97 97 97 98 90 98 89 86 76 70 67 71 75 80 81 83 83 78 79 79 83
38 38 44 49 49 44 38 41 45 45 46 45 50 50 47 56 62 75 86 94 96 97 97 97 97 98 97 96 97 93 96 88 77 86 85 91 90 85 82 74 72 64 77
43 44 45 52 51 45 41 38 41 40 39 38 39 42 40 47 50 62 76 81 85 88 96 97 97 97 98 98 98 96 89 96 96 98 95 88 80 73 65 60 56 60 58
47 45 48 54 55 46 43 36 37 39 37 35 34 38 40 41 44 45 60 71 76 77 77 85 93 93 97 98 93 93 91 93 98 79 79 74 63 57 41 38 41 42 42
47 51 52 57 58 48 43 38 35 34 33 32 33 37 40 43 42 41 42 55 63 63 71 72 77 77 80 91 85 82 80 77 77 84 80 69 65 48 39 37 39 37 37
57 56 57 56 56 51 42 39 35 34 34 32 33 35 39 43 46 44 40 42 47 51 53 66 63 68 69 68 76 77 81 76 72 69 66 62 54 45 41 39 39 37 36
59 60 60 57 54 52 47 40 38 38 38 35 34 35 37 39 45 46 45 42 42 40 41 48 53 51 54 62 64 72 77 80 78 67 64 57 51 49 46 44 46 47 40
63 62 61 56 54 51 50 44 41 41 42 40 37 35 36 37 40 41 44 43 43 42 41 40 37 40 44 45 51 58 63 68 74 71 67 61 55 53 53 49 47 48 44
67 64 58 54 52 51 50 50 47 43 43 42 40 39 36 37 39 40 40 42 43 42 41 40 39 36 36 36 42 44 47 53 54 63 68 66 61 57 55 52 49 47 43
61 61 59 58 57 55 55 54 51 49 46 45 45 42 39 37 39 39 39 42 43 43 42 41 40 38 39 39 36 33 35 37 41 42 44 52 60 58 57 56 50 47 46
58 57 58 59 56 54 53 50 50 49 47 45 46 46 44 43 40 40 39 41 43 44 44 42 40 39 39 38 38 35 30 29 30 31 34 35 36 44 47 46 47 42 42
62 61 60 56 53 50 47 46 46 46 45 45 44 44 44 48 46 43 41 43 42 44 44 43 41 41 41 40 39 35 32 31 29 27 26 26 30 31 31 39 38 37 37

GFSMW_prec_cthk_159.txt.gz
RH
36 32 27 25 24 23 22 22 20 19 18 17 16 15 14 13 11 11 10 13 15 18 26 33 49 72 86 92 87 87 86 79 75 76 74 72 76 76 65 65 68 64 66
35 32 30 28 25 24 24 22 21 19 18 18 17 15 14 14 13 12 11 11 12 14 17 22 28 47 67 78 80 87 93 87 84 83 84 83 79 81 82 78 78 77 78
35 34 34 33 30 27 25 24 22 20 19 18 17 15 13 12 11 10 11 11 11 12 14 16 19 25 38 57 69 70 80 91 92 88 88 92 87 85 83 87 88 89 89
36 35 35 33 31 29 29 27 25 22 20 21 19 17 16 14 13 12 12 12 13 13 13 14 16 18 24 31 47 57 62 72 84 95 93 93 92 90 91 91 92 97 89
36 36 36 35 35 34 33 31 28 26 24 23 22 20 19 18 15 15 15 15 15 15 16 17 16 19 22 24 28 35 46 58 76 86 98 91 92 96 95 91 92 90 91
43 44 44 43 40 37 33 30 29 29 28 28 27 26 23 20 18 18 18 18 19 19 19 21 21 21 23 26 27 28 36 46 67 88 90 95 99 97 95 98 94 85 84
49 47 45 43 40 38 36 35 33 32 31 31 31 26 21 21 24 25 25 24 24 25 26 27 28 27 28 30 29 29 29 37 49 69 80 83 99 97 83 95 95 95 93
51 50 46 43 42 42 40 36 34 34 34 29 24 22 23 23 24 26 27 30 31 34 37 37 37 37 38 35 34 33 30 30 37 46 67 77 72 94 93 89 98 97 98
54 50 49 47 44 40 38 37 33 30 26 21 22 24 26 28 29 33 39 43 48 51 52 53 52 51 49 46 38 35 35 36 33 38 51 58 68 84 97 88 98 96 92
53 52 51 49 44 37 34 33 30 22 22 23 25 26 28 31 34 44 54 59 64 67 69 70 68 68 62 55 50 43 42 46 44 32 50 51 61 77 77 85 92 91 87
56 54 50 46 42 34 30 24 25 25 25 27 29 30 30 34 46 54 60 71 76 79 79 83 78 79 75 70 62 56 53 55 51 40 44 56 59 72 70 78 80 85 84
58 55 50 47 38 25 24 26 28 27 29 32 33 32 36 48 51 51 60 75 85 87 92 92 92 92 90 86 84 75 65 54 50 47 51 57 67 74 74 71 67 72 82
57 51 48 38 27 27 29 32 32 29 27 34 34 36 40 46 51 50 60 70 84 95 96 95 94 95 97 97 94 87 82 67 62 61 56 59 59 73 70 71 70 75 86
53 51 36 30 30 30 32 36 34 31 27 33 33 34 35 45 47 46 54 64 78 90 97 97 96 97 97 97 98 92 94 84 72 68 66 61 66 74 64 73 70 77 87
56 44 34 32 33 34 36 39 38 33 28 31 30 30 31 39 44 39 48 56 71 80 88 95 97 97 97 97 97 95 98 98 88 81 74 73 70 69 66 59 75 85 87
52 45 39 39 37 36 37 42 42 34 30 28 30 30 32 34 39 42 41 47 61 71 74 87 89 97 97 97 97 94 97 98 97 96 98 76 64 74 73 76 86 87 85
51 46 47 41 39 40 41 46 45 35 30 28 27 29 31 34 36 40 41 41 49 61 65 75 83 86 90 94 97 93 93 97 98 94 97 86 85 82 86 85 89 87 88
49 50 46 45 48 47 46 45 45 38 31 29 31 32 31 33 35 38 42 43 41 48 55 62 70 75 80 83 96 97 96 96 97 97 97 80 84 76 82 86 92 91 79
50 47 47 50 52 50 47 46 43 43 34 32 33 37 35 32 34 35 39 43 42 43 44 44 52 61 69 78 80 92 91 94 91 92 96 99 91 96 81 80 79 66 61
48 48 51 54 55 51 49 46 44 43 43 38 36 38 40 36 34 35 36 38 42 43 42 42 39 41 57 60 72 76 77 83 88 94 87 93 96 84 83 73 61 52 49
51 54 56 56 54 52 48 47 47 47 47 47 44 41 41 40 38 35 35 36 38 40 42 44 40 36 37 49 59 64 69 73 76 79 80 82 78 76 75 70 57 55 50
55 57 57 55 55 54 53 52 50 49 48 49 50 48 43 43 44 39 34 35 37 39 41 42 40 39 38 37 42 46 49 58 64 70 77 80 79 76 72 66 57 53 47
56 56 55 55 54 52 52 52 50 49 48 48 49 48 45 43 44 45 42 38 36 38 40 40 40 39 40 42 42 40 42 43 48 54 62 70 72 76 74 72 63 58 51
52 52 55 56 57 55 52 49 48 46 44 42 43 42 41 42 43 42 42 44 43 39 38 39 38 39 40 42 42 41 37 34 32 37 45 48 55 62 70 69 66 59 54
53 58 59 61 61 58 56 53 48 43 39 37 37 37 36 38 40 41 43 43 44 47 45 41 40 39 39 39 40 40 39 37 35 35 33 34 35 41 44 50 62 64 59
62 63 63 62 58 54 49 42 37 34 31 31 31 32 32 35 38 39 40 46 45 46 48 47 44 43 42 41 41 37 37 37 37 35 34 34 33 32 34 34 38 42 45

GFSMW_prec_cthk_165.txt.gz
RH
34 34 32 31 30 27 25 24 23 24 24 24 24 24 24 23 22 21 20 19 18 16 14 13 12 12 12 11 10 11 12 13 17 30 52 64 96 94 76 72 68 76 61
36 35 33 30 27 26 26 26 26 26 25 24 23 23 24 23 22 22 21 20 20 19 18 17 17 16 15 13 13 12 11 14 16 24 30 38 58 80 96 84 82 76 76
37 34 32 30 29 28 28 28 27 27 27 26 26 24 23 23 22 22 21 20 19 19 19 19 19 19 19 18 16 16 16 20 20 23 28 33 42 67 80 90 86 83 78
35 33 32 32 32 31 32 31 31 29 28 27 25 23 22 20 19 18 18 18 19 19 19 19 20 20 21 21 21 21 22 25 24 23 25 28 33 42 60 79 94 94 85
34 34 35 36 36 36 36 34 33 32 30 26 23 21 20 20 20 20 20 18 17 17 18 19 20 22 24 26 28 29 29 30 30 31 29 28 29 30 38 48 76 88 84
36 38 40 41 41 40 38 36 34 32 29 26 24 23 23 22 20 18 17 17 17 17 16 17 20 23 26 30 34 36 37 38 39 36 35 33 33 35 36 38 44 68 84
40 43 45 46 45 42 40 37 35 33 30 29 28 25 22 21 17 15 16 16 16 17 19 20 23 27 32 40 45 44 44 43 42 42 39 38 39 36 36 36 36 42 61
45 48 51 50 47 44 41 39 36 32 31 30 26 24 23 19 15 14 15 17 19 20 21 25 31 33 40 54 56 55 54 50 48 45 47 43 43 46 39 36 38 39 45
50 52 53 52 49 45 41 38 37 35 30 29 26 25 21 16 15 14 16 19 19 22 24 33 35 37 42 60 66 66 62 60 60 60 55 51 49 48 49 39 39 38 43
49 52 53 52 48 44 42 41 39 35 32 29 26 20 17 18 17 16 18 20 20 23 27 35 38 36 43 61 71 72 71 72 73 72 67 65 58 53 50 47 40 43 41
50 53 53 52 50 48 46 44 42 34 31 27 20 19 19 21 20 19 18 20 20 24 27 30 37 37 43 62 72 80 81 81 80 80 78 74 68 61 55 51 47 47 45
51 54 55 53 52 51 47 45 39 34 30 23 22 21 21 23 24 21 21 22 24 23 26 29 33 37 45 63 65 76 78 80 84 83 82 85 83 74 65 57 48 53 54
54 58 59 57 56 52 50 48 39 34 28 26 25 24 23 24 27 26 23 23 26 27 28 30 35 36 40 52 60 70 77 83 90 90 87 88 90 84 77 68 57 56 60
58 59 59 59 59 58 55 46 36 31 29 27 27 27 26 26 28 31 28 25 26 29 29 30 34 38 36 50 51 63 74 83 93 94 95 94 91 88 84 77 74 64 60
60 63 65 64 62 60 53 38 34 32 30 30 30 29 29 29 30 32 34 30 28 28 31 33 33 37 36 44 45 54 70 76 84 96 96 97 94 96 96 86 70 69 75
64 68 70 68 65 60 45 37 35 33 32 32 32 32 33 33 33 34 35 36 34 30 31 35 35 35 36 38 46 44 55 72 75 83 95 97 97 97 97 94 95 89 89
67 70 70 68 64 51 42 38 36 34 34 35 35 37 38 37 37 37 38 38 40 40 37 36 37 36 36 36 40 44 45 58 71 77 88 97 97 96 97 91 97 98 81
68 71 71 64 56 45 41 39 36 35 37 38 38 39 40 41 43 42 40 38 39 40 42 41 40 38 36 36 37 40 41 48 66 69 81 89 97 97 97 96 97 97 97
72 71 67 57 45 43 41 37 36 38 39 39 40 44 44 41 42 40 39 38 37 37 38 41 41 40 40 37 37 38 39 44 57 62 70 80 85 95 97 96 98 97 92
70 65 50 46 44 40 37 36 39 40 40 42 46 46 42 39 39 36 35 34 33 34 35 38 41 41 40 42 39 37 39 40 44 62 60 68 74 84 96 97 97 96 98
55 47 45 42 39 37 37 39 40 40 43 44 43 36 31 29 31 29 29 29 30 30 32 35 38 39 42 41 42 41 38 41 40 46 56 59 66 73 88 97 96 96 97
44 43 40 39 36 36 40 41 43 43 40 32 27 24 22 21 24 26 26 28 28 29 30 30 32 36 40 42 43 42 43 39 39 41 50 51 58 63 72 84 96 96 93
42 40 37 35 39 43 43 43 43 37 28 22 19 18 18 20 22 24 25 26 29 31 33 33 32 34 37 41 43 45 43 42 38 40 42 49 50 55 58 70 78 90 92
39 35 38 42 44 44 45 44 32 23 18 17 17 18 19 20 22 24 27 29 33 35 37 36 35 35 38 41 43 44 46 44 42 39 40 41 42 47 54 58 65 73 83
37 41 44 45 45 44 39 28 20 16 16 17 18 19 20 21 22 24 30 33 37 39 41 41 40 40 40 43 46 49 49 51 48 44 40 39 40 41 42 47 55 59 65
44 46 46 47 45 39 28 19 16 17 18 19 20 21 22 23 24 25 26 32 36 38 40 42 45 44 47 47 49 52 53 52 53 50 47 43 42 44 48 48 45 48 51

GFSMW_prec_cthk_168.txt.gz
RH
38 35 33 30 30 29 28 26 25 24 23 23 23 23 23 23 22 21 20 19 19 18 18 18 18 17 17 17 17 17 16 16 18 15 14 11 10 13 27 53 71 76 80
36 36 35 33 31 29 28 26 25 25 25 25 26 26 25 24 23 22 20 19 18 17 17 17 17 17 16 16 16 16 17 21 24 24 23 20 17 16 25 38 47 66 79
39 37 37 36 33 30 29 28 27 27 28 28 29 27 27 27 23 20 19 17 16 16 16 17 16 16 15 15 16 17 20 21 23 26 30 32 27 24 19 31 34 56 66
40 41 37 37 35 32 31 31 31 32 32 32 29 26 25 23 21 20 18 16 16 17 16 16 15 15 15 16 18 20 23 27 28 29 33 36 36 37 30 20 26 47 57
41 41 38 37 37 36 35 36 36 35 33 30 27 25 23 23 24 25 23 23 21 19 18 17 16 15 16 19 23 25 29 32 35 37 39 39 38 38 39 34 22 20 36
40 42 42 41 41 40 39 38 37 35 32 29 26 25 24 23 25 24 24 22 21 20 20 17 17 18 16 19 24 30 34 39 43 43 43 43 43 41 41 43 39 31 20
43 45 42 44 44 44 42 40 38 36 32 30 28 25 23 24 26 25 25 23 21 19 19 19 17 18 20 23 31 34 38 47 52 53 53 51 49 47 45 47 47 43 27
45 45 45 44 45 46 44 40 38 37 34 31 29 26 24 25 25 25 26 22 20 19 20 20 19 21 24 30 35 36 40 51 60 62 62 61 60 58 54 53 53 48 47
44 44 47 46 46 45 42 39 39 38 36 35 31 29 27 25 25 25 23 23 22 20 21 22 23 25 28 32 32 32 37 55 63 68 71 70 70 71 68 63 59 56 52
46 48 49 47 48 47 44 41 39 41 41 38 34 30 29 26 26 24 24 25 25 24 23 23 26 28 29 32 33 32 36 51 61 70 77 80 80 79 78 75 70 64 59
47 48 50 49 50 49 47 44 45 46 46 40 33 30 27 27 26 26 26 26 28 27 26 26 31 33 32 33 34 33 35 44 55 67 77 84 86 85 85 84 79 73 69
48 51 53 53 53 54 49 48 48 48 47 38 32 30 26 25 28 28 28 29 29 30 31 30 32 31 32 35 34 34 35 42 49 62 72 85 90 90 86 84 85 82 76
51 55 56 55 56 54 52 55 55 51 45 37 34 32 29 29 31 32 32 32 32 32 34 36 35 32 32 34 34 34 34 39 43 55 68 83 90 90 90 89 84 88 81
55 58 57 59 60 59 60 62 58 53 43 38 34 34 32 33 34 34 34 35 35 35 36 37 39 38 35 34 34 34 35 37 41 45 61 70 81 90 91 91 90 87 85
56 58 60 64 67 69 69 66 59 51 41 36 36 34 34 36 37 37 37 37 37 37 37 38 39 41 42 37 34 35 35 36 39 40 48 62 75 88 93 93 92 91 87
58 59 63 67 69 72 71 63 56 45 38 36 35 35 37 38 38 37 35 36 37 38 39 40 38 40 44 41 39 37 35 35 37 38 40 58 67 81 95 97 94 95 94
60 62 67 69 73 72 65 60 50 38 37 37 37 37 38 37 36 37 36 39 40 40 40 39 35 39 40 37 39 38 38 36 35 38 40 53 66 73 83 96 97 96 97
62 65 68 71 72 68 62 51 40 38 37 38 38 37 37 36 35 32 30 33 34 36 36 36 35 37 37 35 35 38 39 44 39 38 39 43 64 68 76 89 96 97 97
62 64 66 69 68 62 48 41 38 37 39 38 38 38 35 32 28 25 24 28 29 30 31 32 33 32 33 33 35 36 39 43 42 42 41 42 51 65 69 81 94 98 98
61 65 67 65 59 45 41 37 38 39 37 40 40 33 28 24 21 20 25 26 28 28 29 29 30 30 31 31 32 36 38 40 41 43 43 41 44 62 67 74 90 95 98
66 66 62 51 43 39 35 38 38 40 40 38 31 26 22 19 19 21 25 27 29 30 30 31 30 30 31 32 32 35 38 39 39 43 42 41 42 53 62 68 81 96 96
60 54 44 42 39 35 36 40 42 40 35 28 23 20 19 20 21 21 25 27 31 31 32 32 31 32 32 33 31 34 38 41 42 42 44 43 39 45 57 65 71 85 96
45 42 43 39 35 37 41 44 43 34 23 19 15 18 18 22 23 24 25 27 29 34 34 35 35 34 34 35 34 33 36 41 44 47 46 48 45 43 52 60 69 75 85
46 44 39 36 41 43 43 42 30 22 21 15 15 16 18 20 25 26 27 29 32 33 37 37 36 33 35 37 36 36 37 39 44 45 49 50 49 45 46 53 60 70 74
43 38 38 43 46 46 43 32 23 19 18 16 17 20 25 24 27 28 30 31 33 34 35 36 37 37 36 37 39 41 43 44 46 47 52 53 53 50 48 50 54 60 68
39 42 45 47 47 44 34 24 19 15 16 19 23 24 28 29 30 31 32 35 33 34 36 36 37 37 39 39 40 44 47 48 49 51 53 55 57 56 52 50 52 53 58

GFSMW_prec_cthk_171.txt.gz
RH
33 34 34 32 31 30 28 27 27 27 26 25 24 27 28 28 29 28 25 22 20 18 18 20 21 20 20 19 21 21 20 18 20 19 16 14 13 18 21 27 30 24 36
35 35 34 32 32 32 30 30 29 27 26 28 28 28 30 31 30 28 27 26 22 20 22 22 22 19 19 20 21 21 20 19 20 22 22 22 16 18 19 20 26 33 38
36 35 35 34 33 34 34 33 31 28 28 29 33 33 33 30 28 26 25 24 22 19 20 21 22 23 22 21 17 20 20 21 20 24 29 30 27 27 21 16 17 24 30
37 39 39 39 36 37 36 34 31 34 33 33 34 31 31 28 27 26 24 22 23 22 21 21 21 21 21 20 19 19 20 22 23 24 27 32 36 36 29 26 22 18 17
40 41 39 38 37 36 36 37 38 38 36 35 31 29 26 26 26 25 25 23 23 23 23 22 21 22 22 21 21 20 20 21 24 29 29 31 39 43 43 34 30 28 22
40 40 40 40 40 38 39 41 40 41 37 33 28 26 26 26 27 25 24 24 24 24 23 22 21 20 20 19 19 21 22 22 26 30 34 39 46 49 49 46 41 34 30
39 41 43 42 42 41 42 42 41 40 38 31 30 30 30 28 27 27 26 27 27 26 25 24 21 20 20 21 22 22 23 25 27 30 33 42 50 54 57 57 50 45 37
41 43 45 45 44 45 44 42 43 40 36 35 34 34 32 30 29 29 29 29 28 27 26 23 23 22 24 23 24 24 25 26 29 31 31 34 44 57 64 66 65 54 49
43 46 48 50 48 50 47 45 43 40 38 37 38 37 35 31 32 32 31 28 29 28 25 24 25 26 26 26 26 29 28 28 30 31 32 34 42 58 73 76 77 73 59
49 50 52 56 53 50 48 47 45 44 41 41 42 40 36 33 33 32 31 31 29 27 26 27 28 30 30 29 29 30 29 30 31 32 33 35 43 56 76 83 84 84 76
52 54 57 57 51 50 50 50 48 45 44 46 44 41 36 35 35 34 34 31 28 30 30 31 31 32 32 31 32 31 30 31 32 34 35 35 43 49 74 84 88 87 85
55 56 61 56 53 54 55 53 51 49 51 50 49 43 41 39 35 34 31 30 31 33 34 35 33 34 35 36 37 36 36 32 32 34 36 37 39 44 59 71 80 84 85
58 60 62 58 58 60 58 56 57 55 54 54 49 44 43 39 34 30 30 31 32 34 35 33 33 34 35 37 39 39 39 40 35 34 37 38 39 42 48 56 68 78 82
61 63 64 60 63 62 60 61 60 58 58 55 49 46 42 35 30 31 32 32 33 37 34 33 33 34 35 41 37 37 37 38 40 38 38 38 40 42 46 49 60 70 82
61 65 70 67 68 66 64 66 67 65 62 54 50 43 35 31 30 32 31 32 34 37 36 36 37 34 39 39 35 32 34 34 35 41 40 40 38 41 45 49 57 65 83
65 71 75 69 68 69 68 69 69 66 59 53 44 37 32 30 31 30 30 33 37 34 31 30 32 27 32 34 31 29 32 33 38 39 38 40 41 39 40 43 50 66 79
71 78 72 68 66 69 72 70 68 63 53 46 39 33 32 31 29 28 30 33 30 27 27 28 30 29 31 30 26 26 28 31 36 38 39 41 40 40 38 40 45 59 75
77 74 71 69 69 73 72 71 65 55 48 40 34 32 31 29 26 27 29 27 26 26 27 28 29 31 32 30 26 26 28 31 32 35 39 40 41 39 40 38 41 54 71
73 71 69 68 72 73 72 66 57 49 39 34 34 32 31 26 23 25 23 26 27 27 27 29 29 35 32 31 27 27 30 32 33 33 37 40 41 39 42 42 40 48 67
69 67 66 71 72 70 65 56 47 39 34 34 33 32 26 23 19 20 26 27 27 27 28 30 31 32 34 32 31 32 32 34 31 32 35 40 42 40 42 45 45 45 62
64 63 68 68 69 64 53 42 38 36 34 35 33 27 23 18 18 22 26 28 29 30 31 32 32 33 33 34 34 33 33 35 34 34 37 37 40 41 43 48 50 49 62
66 66 66 68 60 46 38 37 35 35 37 35 28 22 19 18 20 20 27 27 32 34 34 35 35 36 36 36 36 34 32 33 36 37 37 40 42 46 48 50 52 52 61
66 67 66 52 41 39 38 34 35 37 37 27 21 21 20 21 22 23 26 28 30 37 38 38 38 38 38 37 36 33 32 33 35 39 41 44 48 51 50 53 55 54 59
64 54 45 41 42 38 34 35 38 37 29 18 15 14 21 20 24 26 29 32 33 34 36 38 36 37 37 38 34 32 32 34 36 40 42 47 50 54 54 54 57 56 58
48 44 45 41 36 34 37 40 38 31 26 17 15 19 23 24 26 28 32 33 37 36 37 37 37 38 36 35 37 38 38 39 41 42 49 50 51 55 59 59 61 57 56
46 44 39 35 36 40 42 41 33 23 20 22 22 22 25 26 28 31 34 39 38 38 37 37 38 37 36 35 36 39 39 43 46 49 51 53 54 56 62 62 64 63 58

GFSMW_prec_cthk_174.txt.gz
RH
36 37 33 31 31 29 28 27 26 27 29 29 27 25 24 26 27 27 25 23 20 19 18 16 16 15 14 16 16 15 14 13 14 12 11 9 12 12 12 16 19 21 26
37 36 33 31 31 30 28 28 28 29 29 28 26 26 27 30 30 27 27 25 24 21 19 17 17 18 19 18 15 14 14 14 16 20 18 17 14 16 13 15 14 15 16
33 33 32 33 32 32 32 31 29 29 28 29 29 30 32 31 28 27 27 23 23 20 20 19 19 18 21 20 19 19 20 20 20 21 25 29 28 21 16 15 17 17 16
30 32 34 36 35 34 33 33 33 31 29 30 32 32 30 29 27 27 24 20 22 20 21 21 21 21 21 20 20 20 20 20 21 21 23 29 32 33 24 21 23 24 21
34 35 37 38 39 36 35 33 34 33 33 34 33 32 30 28 27 24 20 23 20 22 21 20 22 21 20 22 18 20 21 21 21 22 22 23 27 30 34 27 22 23 26
39 39 40 40 41 38 35 36 37 37 36 36 36 34 31 29 28 26 24 23 23 24 24 24 23 22 24 24 23 21 21 22 22 23 25 27 27 28 30 29 27 27 26
43 43 43 42 39 40 40 41 41 42 41 41 39 34 32 32 31 28 26 24 26 26 25 25 24 22 26 25 23 23 23 23 24 26 27 27 29 29 30 34 32 29 31
45 44 43 40 40 47 47 45 45 45 46 43 38 36 36 35 33 29 27 28 27 26 27 28 27 25 26 25 24 25 25 26 27 27 28 29 30 30 30 33 37 36 36
44 42 43 46 48 51 52 50 50 49 47 44 42 41 39 36 35 31 30 30 30 30 30 29 26 25 25 26 27 28 29 30 30 30 30 30 31 32 31 32 38 42 45
44 46 49 50 53 55 57 55 53 51 49 48 48 43 41 41 39 36 33 32 32 31 29 27 26 26 26 27 28 29 30 31 32 33 33 34 32 32 33 35 38 41 46
49 53 54 56 60 59 59 57 55 53 51 55 52 47 45 44 41 38 35 34 30 30 27 26 27 26 26 25 26 27 28 30 32 34 34 35 38 34 33 35 38 39 43
54 55 56 60 59 61 61 61 59 56 58 57 56 51 49 48 43 39 38 34 30 27 26 28 25 24 24 26 27 26 27 28 30 33 33 35 39 40 38 38 39 41 41
57 58 61 62 65 67 67 63 62 63 64 62 59 57 54 49 44 42 37 32 27 27 28 26 25 23 22 22 24 24 23 23 25 30 33 38 37 38 39 38 40 40 40
61 66 65 64 70 69 65 66 68 66 65 62 63 61 56 48 45 40 33 27 27 26 28 30 29 24 20 22 24 22 19 18 19 23 28 35 37 38 39 40 39 37 36
70 71 73 68 69 69 72 70 70 69 67 67 68 61 52 48 43 35 27 27 26 26 27 27 28 25 23 26 28 26 20 18 21 23 29 29 32 35 38 40 38 37 37
79 77 69 69 72 77 77 73 73 73 72 72 65 58 51 44 36 27 27 26 24 24 25 26 27 26 27 29 28 24 20 20 22 27 27 28 31 33 34 37 38 40 40
74 76 74 74 78 84 80 76 76 75 74 71 63 54 46 37 28 27 25 23 23 23 24 25 26 25 29 30 28 26 22 22 24 25 27 29 32 34 35 32 34 37 42
76 82 80 79 83 82 77 76 76 76 73 66 57 46 38 30 27 25 23 21 23 23 25 26 27 28 31 31 29 26 23 25 25 26 28 31 35 36 37 35 33 35 40
78 84 84 86 82 75 73 77 75 75 69 61 49 37 32 27 25 23 20 22 21 24 26 29 29 31 32 33 29 28 26 27 27 27 29 33 37 36 37 40 38 37 41
83 85 87 81 76 75 75 74 74 67 59 48 38 34 29 26 23 20 19 20 22 26 28 30 30 32 34 34 31 30 30 30 28 29 30 32 37 38 41 43 45 44 43
78 78 78 78 76 75 74 72 69 57 45 39 35 30 28 24 19 19 20 21 23 26 28 28 29 31 32 31 32 31 31 31 30 31 32 33 37 41 44 47 50 50 48
76 76 74 73 73 72 68 67 52 43 40 35 31 30 25 20 20 19 20 22 23 25 27 29 30 31 31 31 31 32 32 35 33 33 34 37 42 44 47 50 53 54 54
76 73 71 71 68 67 58 44 41 40 35 32 32 27 22 19 19 20 22 23 25 27 29 31 31 30 31 31 32 32 32 33 34 35 38 42 45 47 49 54 58 60 60
73 72 70 66 61 47 43 43 39 33 32 29 24 20 17 17 18 21 23 25 27 30 30 32 32 32 32 33 32 31 32 32 32 33 36 42 45 48 52 57 62 64 65
72 69 63 49 43 44 41 36 34 36 34 26 22 20 23 21 23 23 25 27 29 30 31 33 35 35 35 36 37 39 38 39 39 37 40 41 44 48 52 58 65 66 69
62 52 43 43 44 38 34 35 38 37 34 26 27 23 24 24 25 24 27 29 32 34 36 38 40 40 39 36 35 40 40 39 40 39 43 45 49 53 55 58 63 68 72

GFSMW_prec_cthk_180.txt.gz
RH
37 36 37 37 35 35 33 30 31 30 29 28 27 28 27 28 28 27 24 25 24 23 22 21 20 18 16 15 14 13 12 10 9 8 7 6 7 8 10 9 8 9 9
37 36 35 34 35 36 35 35 32 30 29 29 30 29 29 29 30 27 27 27 26 26 26 23 21 19 18 16 15 14 12 12 12 13 12 12 9 10 9 10 9 10 9
37 37 36 37 38 40 39 32 29 28 30 31 30 31 31 31 30 28 29 28 29 29 26 24 23 21 19 18 16 15 13 15 16 19 19 20 20 18 15 13 12 11 10
37 35 34 33 34 36 33 30 30 31 32 33 33 34 33 33 31 33 32 32 33 30 28 26 25 23 22 20 19 18 17 20 22 21 21 22 23 25 22 19 13 12 11
35 36 35 37 37 35 35 34 33 34 34 36 35 34 34 34 35 38 38 37 34 33 31 29 28 26 24 22 21 20 18 23 22 21 22 23 23 23 25 20 21 15 13
37 37 39 41 42 41 41 41 39 37 39 40 38 36 37 39 41 43 42 39 38 36 35 33 31 28 26 24 21 20 19 22 22 20 23 23 23 23 23 22 22 22 17
39 40 42 44 47 47 48 48 46 46 42 38 36 39 42 44 48 48 45 43 40 40 39 37 33 30 26 22 20 19 19 19 19 20 18 17 19 21 21 22 19 19 15
37 39 43 46 49 51 53 52 52 47 41 40 42 45 46 51 52 52 49 46 44 44 43 40 36 30 23 20 18 19 19 18 17 14 13 13 15 18 20 22 23 17 17
38 42 45 46 51 56 55 57 56 50 47 46 48 50 55 54 54 55 54 51 50 50 47 42 35 29 22 17 16 18 19 18 15 10 9 11 13 16 19 20 21 25 25
44 45 47 49 56 58 60 60 58 55 51 50 53 57 59 56 58 59 57 57 57 54 48 40 36 26 20 17 18 20 20 17 13 9 9 11 13 15 17 20 20 24 22
49 50 53 56 58 60 60 61 61 57 55 55 56 60 60 62 61 62 64 61 58 54 47 40 33 24 20 19 18 19 17 15 11 8 10 12 16 18 21 20 20 23 24
47 47 49 52 56 58 62 63 62 58 58 61 63 66 64 64 66 65 64 63 61 55 46 40 29 22 20 18 17 17 16 14 12 10 11 14 18 19 19 20 26 29 26
55 54 56 59 60 63 65 68 58 60 66 69 70 67 65 69 67 67 68 67 61 52 46 36 25 22 20 18 16 16 16 15 14 12 14 15 16 17 21 23 29 32 28
55 56 59 62 63 63 63 60 61 65 74 77 71 67 72 71 70 72 71 67 59 51 42 29 24 22 20 17 17 17 17 17 16 14 15 16 17 22 24 26 32 28 26
58 61 60 62 63 61 59 61 70 75 81 77 72 77 79 75 75 75 71 65 57 45 32 24 23 21 19 18 19 19 20 20 18 16 18 18 20 25 26 27 27 27 26
59 65 64 63 61 59 63 70 77 82 84 81 79 86 81 79 78 77 70 61 51 35 25 24 21 20 19 20 21 21 21 21 17 17 18 19 20 21 23 24 26 29 30
69 64 60 57 58 61 68 74 81 88 87 84 92 87 82 79 81 74 66 54 37 28 25 22 20 20 20 21 23 23 22 20 18 19 20 20 21 22 23 26 27 29 28
74 76 67 65 65 68 74 81 86 93 91 95 92 83 78 80 78 67 55 39 31 26 22 20 20 20 22 23 24 24 22 20 20 20 22 22 24 26 28 33 28 28 30
67 67 72 77 79 77 82 86 92 97 98 98 91 80 78 81 68 57 39 33 27 24 21 21 21 22 23 23 24 23 21 21 22 24 23 27 31 29 35 34 30 29 30
66 67 75 78 81 86 92 95 96 98 98 96 85 79 83 68 57 39 34 27 25 23 22 21 21 21 21 21 21 22 24 26 30 26 26 30 30 30 35 35 33 33 35
61 64 70 76 82 90 93 96 98 98 98 92 79 83 71 55 41 35 28 24 25 23 22 21 20 19 19 20 23 23 28 32 33 30 32 32 32 35 34 34 36 41 41
68 64 70 78 84 91 96 98 98 97 95 80 83 72 52 42 36 28 26 25 23 22 21 19 18 19 21 24 26 28 36 36 36 36 34 34 34 33 34 36 38 40 38
53 59 71 77 86 97 94 95 92 97 84 86 74 48 43 35 28 29 26 24 23 20 19 18 20 22 24 27 30 35 39 42 41 39 37 35 32 31 31 36 39 38 39
60 64 71 81 86 92 95 93 98 85 88 70 47 46 35 30 28 27 25 23 20 20 20 22 24 26 30 34 39 43 48 49 43 41 38 35 33 32 33 35 37 38 41
72 69 71 79 92 95 92 95 91 86 62 51 44 35 33 30 27 27 26 24 24 23 23 25 29 32 37 42 48 53 58 50 46 43 38 36 33 31 32 34 38 38 40
72 76 82 79 81 84 91 90 74 61 51 39 36 35 31 28 28 27 27 26 24 25 27 30 34 38 44 49 55 62 55 48 48 45 43 40 36 35 35 36 37 37 40

GFSMW_prec_cthk_183.txt.gz
RH
45 45 42 41 41 41 39 36 33 32 32 31 33 33 31 29 29 28 27 27 27 25 25 25 24 24 23 21 19 19 18 16 15 14 12 11 11 14 13 11 10 9 8
45 46 44 43 41 39 38 36 33 32 33 36 36 33 30 31 31 30 30 30 29 28 28 26 26 26 25 23 22 21 20 18 17 15 15 14 13 12 12 11 10 10 9
47 49 46 43 42 41 41 39 37 38 40 37 33 32 32 32 33 33 33 33 32 31 28 30 30 29 28 26 25 23 21 19 18 17 16 19 22 18 11 10 11 11 11
42 43 44 42 41 41 42 39 39 37 34 33 33 33 33 35 35 36 38 37 33 33 34 35 35 33 31 29 27 25 22 20 18 16 16 19 21 20 19 13 10 11 11
41 43 45 42 41 43 43 40 38 36 35 35 36 36 37 38 41 41 37 36 37 38 40 40 38 36 33 31 29 26 23 19 18 17 15 14 15 17 19 18 14 7 8
42 44 47 44 41 43 45 45 41 40 40 40 41 41 44 46 42 40 40 40 43 44 44 43 41 38 36 35 32 26 21 19 17 16 14 14 16 17 19 19 16 16 7
42 42 43 41 41 43 47 51 49 47 47 47 47 48 48 48 45 43 43 45 50 50 50 46 43 42 41 37 30 24 21 19 16 14 13 13 13 14 15 16 16 15 8
37 39 41 44 45 48 51 54 56 54 53 52 52 52 49 47 46 46 49 54 56 57 53 51 49 48 43 35 28 24 22 18 15 13 12 11 12 11 13 16 17 14 15
35 36 38 41 45 49 54 58 61 59 59 58 55 51 50 49 50 52 56 62 61 59 56 56 54 49 42 35 28 23 19 16 14 12 10 9 8 10 13 15 18 18 18
44 42 43 45 49 53 57 63 66 64 64 64 60 52 50 52 54 56 63 63 66 62 62 59 55 50 43 35 25 20 17 14 13 10 7 7 8 11 13 17 17 15 18
43 49 48 50 53 56 61 67 70 66 68 70 62 56 56 54 55 61 67 66 68 66 64 60 57 51 41 32 22 18 16 15 11 8 7 8 10 11 12 13 14 18 19
44 45 51 54 55 60 64 69 69 68 72 76 66 60 56 55 62 67 69 71 68 68 66 63 57 48 39 28 20 17 16 12 9 9 9 10 12 12 13 14 16 19 21
49 48 48 51 57 59 63 66 69 73 77 79 66 60 60 61 69 69 73 70 70 70 68 63 55 46 35 23 18 17 13 12 11 11 12 13 14 14 16 17 19 22 22
58 55 53 52 56 60 65 66 70 72 80 77 66 66 70 73 71 73 75 75 74 72 69 60 52 41 26 21 19 15 13 13 14 13 14 14 15 18 22 23 24 22 22
66 64 64 64 63 63 62 62 66 74 77 72 71 74 80 77 77 80 78 76 75 73 65 56 47 30 23 21 16 13 14 16 15 14 15 15 16 18 23 22 23 26 26
69 68 70 70 67 67 66 67 72 73 75 73 79 83 88 82 86 85 77 77 76 69 61 51 34 25 23 19 16 14 15 17 15 15 16 16 17 18 19 22 26 28 29
72 70 69 69 72 72 70 71 74 75 75 81 85 90 90 89 92 82 80 81 74 64 56 38 28 24 20 18 17 16 17 17 16 16 17 17 18 20 22 27 30 29 27
70 70 68 70 73 76 76 76 78 78 78 83 86 97 95 97 85 81 82 77 69 58 41 30 25 22 19 19 19 19 18 17 17 18 20 20 21 24 31 33 29 27 27
71 71 68 74 76 81 83 81 81 87 87 85 95 98 98 91 84 83 82 73 62 44 31 26 24 21 21 21 20 19 18 19 20 22 22 25 28 33 36 34 30 29 28
67 63 68 74 81 79 80 84 85 89 92 97 98 98 97 90 85 86 74 64 47 34 27 25 23 22 21 19 18 18 20 22 25 27 28 30 35 38 37 34 33 32 33
64 64 67 70 79 84 85 83 89 94 97 98 98 98 94 87 88 75 65 50 36 30 26 24 24 22 18 17 18 20 22 28 33 34 35 37 40 41 38 37 35 38 35
62 69 72 73 72 81 86 86 90 96 97 98 98 96 91 88 75 66 51 42 32 27 25 25 24 19 17 18 20 22 27 35 37 39 41 44 43 42 38 35 39 38 35
70 69 71 75 76 80 83 84 92 96 96 98 96 91 87 75 68 52 43 33 29 26 24 24 19 18 19 20 23 27 33 39 41 45 49 45 40 40 38 37 38 37 35
66 66 65 69 72 75 80 85 92 98 98 97 90 79 73 68 55 46 39 30 27 25 23 20 20 20 22 24 28 33 39 43 48 52 49 43 41 42 39 38 35 36 37
66 67 71 74 76 82 88 89 98 96 97 92 77 72 67 55 47 40 32 28 25 23 23 22 22 23 26 30 36 40 44 46 52 53 46 43 43 46 44 41 37 36 35
69 73 81 82 84 91 92 92 92 93 81 76 71 65 53 45 38 32 28 28 26 27 25 26 27 30 33 37 40 45 47 48 51 49 47 47 49 50 48 44 39 37 36

GFSMW_prec_cthk_189.txt.gz
RH
35 39 42 46 50 52 53 54 55 53 53 51 47 42 39 38 36 35 34 33 34 32 31 29 27 26 27 30 29 30 29 30 31 30 29 28 27 24 19 18 16 14 12
41 41 41 46 49 49 52 52 54 54 55 54 51 45 41 39 37 37 38 39 37 35 32 30 30 30 33 33 33 32 32 33 31 30 28 27 25 21 19 17 15 13 12
42 43 46 47 51 50 53 57 55 60 59 57 52 47 43 40 40 41 42 40 37 35 33 33 34 36 36 36 36 35 34 33 32 29 26 25 23 19 18 17 15 14 12
43 46 48 49 52 54 57 60 59 60 60 56 51 47 43 41 41 41 41 39 37 37 37 38 40 40 41 40 39 37 35 33 33 29 25 21 19 17 19 16 14 13 12
39 39 44 52 58 63 64 64 66 62 59 56 51 48 46 42 40 40 39 39 40 41 41 44 47 46 43 43 41 40 37 34 33 27 23 19 18 17 18 18 16 14 9
38 39 39 42 49 59 64 66 65 62 61 56 53 50 50 48 44 42 42 42 44 45 47 50 49 47 48 46 44 43 37 35 31 27 23 20 19 18 17 20 17 11 12
41 41 40 41 45 48 56 63 65 64 62 58 55 54 54 54 52 47 46 47 48 49 49 50 52 54 52 49 48 42 40 35 31 27 23 20 17 15 14 15 16 15 11
49 46 44 44 44 48 53 57 59 60 62 62 60 59 61 60 60 58 54 50 47 48 55 57 58 57 53 53 48 45 41 37 33 28 23 19 16 14 12 10 13 13 12
43 45 46 46 46 48 50 55 59 61 62 64 65 63 65 67 66 62 60 57 56 56 60 63 59 56 56 55 51 48 42 38 34 28 22 19 15 13 11 9 8 15 14
47 45 47 48 47 48 50 53 56 57 61 64 67 68 68 70 68 67 65 63 62 64 65 60 59 59 58 59 54 51 43 41 36 28 21 18 14 12 10 8 8 11 16
50 47 47 48 52 51 53 54 56 58 61 63 67 69 71 70 73 73 71 68 70 66 60 59 61 62 62 60 57 53 46 42 37 28 21 16 13 11 9 8 9 10 17
52 52 50 50 50 51 52 55 59 60 63 67 69 72 72 74 86 81 74 73 69 62 59 60 63 65 66 64 62 56 49 43 36 29 19 16 13 10 9 9 9 14 14
55 54 54 53 53 54 55 56 59 67 69 70 73 74 73 83 87 77 84 75 68 65 61 62 67 69 72 70 64 56 50 44 36 26 19 14 11 10 10 10 13 17 21
50 53 57 61 61 60 60 62 61 63 68 74 77 79 80 89 92 90 79 73 71 64 64 67 70 80 75 71 64 58 51 42 35 23 16 14 10 11 11 14 20 23 24
42 44 47 52 59 70 70 69 72 69 71 74 74 73 82 93 87 84 81 78 72 69 70 73 80 84 75 72 65 59 51 44 32 20 15 12 10 11 12 15 23 25 26
44 45 44 45 46 56 65 69 72 77 75 77 78 80 82 89 89 90 93 85 80 77 77 89 88 79 81 71 66 61 51 40 25 20 15 12 12 13 15 19 20 22 24
40 42 42 42 43 48 60 63 72 77 85 89 86 86 89 90 96 98 96 92 85 85 96 92 91 87 75 71 63 58 47 32 23 17 13 14 15 17 19 22 22 23 26
47 48 47 48 49 50 53 61 69 70 79 86 92 90 92 97 98 97 97 95 96 97 96 93 89 81 75 68 62 53 41 27 19 16 15 16 18 20 24 30 26 27 30
49 52 52 47 49 53 58 66 70 71 77 79 87 95 96 98 98 97 97 97 97 97 95 94 88 81 76 68 58 46 33 25 21 17 18 20 21 22 30 32 29 30 32
55 50 52 50 56 58 58 68 75 81 88 87 95 98 98 98 98 97 97 98 97 97 96 93 86 79 71 62 49 37 33 22 20 20 22 23 23 25 28 32 36 33 37
59 59 59 62 71 72 74 82 85 90 94 98 98 98 98 98 97 97 97 97 97 97 94 87 77 68 57 44 41 35 25 23 21 24 26 26 27 29 31 33 33 36 40
68 71 75 81 87 86 92 95 97 94 99 98 98 97 97 97 98 98 97 97 97 94 85 76 65 53 47 44 38 28 23 22 23 30 29 30 30 31 33 34 35 36 36
66 72 80 87 98 94 93 96 93 94 98 95 97 96 97 97 98 97 98 97 92 83 74 63 53 52 47 40 32 25 24 26 30 32 31 30 30 31 33 36 36 36 45
63 79 75 82 87 95 94 94 97 96 97 97 97 95 93 93 94 97 95 86 83 74 62 55 49 48 39 29 26 28 31 33 31 30 29 30 32 34 35 36 42 51 55
72 72 75 80 84 85 91 95 92 87 88 89 90 88 92 96 96 91 89 78 66 57 51 47 45 37 28 27 31 33 34 33 30 30 31 32 33 35 41 53 58 55 59
74 73 73 80 82 82 83 92 92 89 86 88 90 89 91 90 85 79 71 61 57 52 47 40 32 29 29 33 35 35 34 35 35 35 37 39 44 48 56 58 57 58 56

GFSMW_prec_cthk_192.txt.gz
RH
32 37 41 46 53 55 57 58 58 55 53 51 50 46 44 42 38 36 35 36 36 37 35 33 33 32 31 30 28 27 29 31 33 40 40 35 30 24 23 23 21 18 15
41 42 41 43 46 50 53 52 51 53 55 56 56 52 48 46 43 41 39 38 37 37 35 38 37 35 33 31 30 31 33 37 37 41 37 36 33 27 25 21 17 14 14
43 49 47 47 50 52 53 54 56 58 63 64 63 60 56 54 50 46 42 39 38 38 41 41 38 36 34 33 34 36 39 39 40 38 38 34 33 25 24 19 18 14 14
45 50 52 47 50 56 58 59 60 60 67 69 67 64 62 59 55 50 44 40 39 41 42 41 38 37 37 38 40 41 41 42 43 37 35 29 25 25 24 21 19 16 16
43 46 47 51 53 58 60 65 68 70 74 71 70 68 67 62 55 52 47 43 40 41 40 40 39 41 42 44 44 45 47 47 44 39 35 29 24 20 21 20 21 18 17
41 43 47 48 50 54 59 65 70 76 77 74 72 71 67 65 60 55 51 48 45 42 42 43 44 46 47 48 48 51 52 50 42 40 36 35 31 27 22 19 18 17 18
46 46 45 47 48 50 52 58 66 72 78 76 76 73 73 69 63 57 54 52 51 48 47 47 48 48 49 51 56 59 53 48 44 42 38 31 30 26 24 21 19 18 17
48 47 50 51 52 54 54 55 57 65 73 77 78 78 77 75 69 63 58 57 56 52 52 53 52 52 55 60 65 56 52 50 47 44 40 37 30 27 23 23 21 20 20
52 50 50 50 53 56 57 57 60 64 69 73 78 80 80 79 75 70 66 64 62 59 58 57 57 59 63 67 60 57 55 52 48 45 43 43 36 31 28 25 22 20 24
55 53 54 54 52 53 56 58 59 59 63 68 75 80 80 80 79 75 71 69 67 64 61 62 62 68 71 65 61 60 59 56 52 51 48 45 39 31 27 25 23 21 19
53 54 52 53 54 54 55 55 58 60 62 64 69 74 76 81 79 77 75 74 73 67 69 66 72 75 68 62 61 64 62 62 57 54 49 41 35 34 29 26 24 21 20
54 55 57 55 54 54 56 57 57 59 60 62 66 71 74 77 77 77 77 75 68 75 76 80 82 72 66 64 64 65 65 65 63 54 50 43 37 32 31 28 24 22 19
50 50 52 55 53 53 54 56 58 57 58 62 65 70 74 78 80 80 79 77 75 92 93 84 79 72 70 67 69 68 68 67 59 54 54 46 37 36 32 24 24 22 18
50 52 49 45 44 48 52 58 59 62 61 58 62 68 72 78 81 80 77 73 92 96 94 90 76 76 71 69 71 77 70 65 58 53 49 44 38 38 25 26 25 22 19
49 48 49 49 48 44 41 44 50 60 67 66 62 64 73 75 76 77 76 83 97 98 97 84 83 76 72 73 83 80 76 67 57 53 51 43 34 26 20 20 27 23 22
46 47 45 45 47 45 41 42 45 51 57 61 68 72 73 80 77 75 75 83 93 93 92 92 86 79 79 83 88 82 72 66 61 56 47 39 29 24 20 21 18 15 17
47 49 49 49 48 47 45 41 41 45 50 56 64 68 76 83 82 83 83 94 96 97 97 96 90 91 92 95 87 79 75 66 59 51 43 36 27 22 24 25 21 23 20
56 49 47 46 49 49 46 47 49 45 47 52 56 63 77 84 87 85 88 98 97 97 97 96 95 97 97 94 85 82 74 69 56 46 34 27 26 26 21 25 30 30 32
50 53 50 46 43 46 49 50 51 52 53 54 54 61 68 78 84 88 97 98 97 97 97 97 97 96 97 95 87 83 72 65 51 39 30 28 28 22 19 21 32 34 35
60 51 53 53 53 50 50 57 57 57 55 60 68 72 79 82 93 97 98 98 97 97 97 97 97 97 97 95 85 74 62 50 40 36 35 25 21 23 23 24 31 35 34
62 59 57 57 57 53 60 65 67 67 71 73 84 89 92 98 98 97 97 98 97 98 97 96 97 97 95 82 70 59 51 43 38 36 31 31 29 27 25 25 26 27 25
69 66 62 59 63 64 63 74 72 84 92 93 98 94 97 97 97 98 98 97 98 97 97 97 97 95 85 73 60 49 39 35 37 33 33 35 31 26 24 24 25 24 24
72 69 66 62 64 73 88 98 87 98 97 98 97 97 97 98 96 97 97 97 97 97 97 97 92 84 76 60 48 37 32 29 33 35 37 30 26 25 28 27 25 26 38
67 67 70 69 76 81 86 92 95 97 98 95 96 97 97 97 97 96 97 97 97 97 96 89 81 71 59 48 38 35 33 33 34 35 33 30 29 30 29 32 36 39 46
70 69 67 71 74 84 86 92 91 94 92 92 95 94 93 90 94 93 94 97 97 93 82 73 66 57 45 39 41 37 36 38 36 33 33 34 39 38 42 42 45 51 55
78 76 69 71 71 79 87 85 92 93 96 93 92 92 96 95 91 91 94 95 84 77 70 56 46 38 40 34 32 34 33 31 29 30 39 42 45 48 51 56 59 61 63